Location: Tamazert
(32.6352°N, 5.2072°W)
Time: 05:37:46
(UTC+00:00)

Vanguard 2 - Pass Details

Date: 12 October 2022
Orbit: 553 x 2933 km, 32.9° (Epoch: 26 November)

Event Time Altitude Azimuth Distance (km) Brightness Sun altitude
Rises 15:25:07 0° 283° (WNW) 4,862 12.3 28.1°
Reaches altitude 10° 15:27:54 10° 280° (W) 4,145 12.1 27.6°
Maximum altitude 15:39:42 62° 203° (SSW) 2,673 11.1 25.5°
Drops below altitude 10° 15:56:42 10° 128° (SE) 5,739 11.8 22.3°
Sets 16:01:22 0° 126° (SE) 6,775 12.1 21.4°
